Location: B�rgermoos
(47.6500°N, 9.0667°E)
Time: 16:52:53
(UTC+00:00)

Vanguard 1 - Pass Details

Date: 08 August 2021
Orbit: 652 x 3831 km, 34.3° (Epoch: 17 September)

Event Time Altitude Azimuth Distance (km) Brightness Sun altitude
Rises 10:57:55 0° 247° (WSW) 3,013 12.6 57.7°
Reaches altitude 10° 11:00:36 10° 228° (SW) 2,229 12.3 57.8°
Maximum altitude 11:04:09 19° 183° (S) 1,929 12.5 57.9°
Drops below altitude 10° 11:08:42 10° 139° (SE) 2,964 13.1 58.1°
Sets 11:13:03 0° 124° (SE) 4,446 13.7 58.2°
